CW4340 Weather Reports


time (UTC)temp
F
wind
direction
speed
knots
gust
knots
rain 1hr
in
rain 24hr
in
rain mn
in
humidity
%
barometer
mb
20260506110504 76 176 0.0 0.0 0.00 0.00 0.00 90 1009.7
20260506110003 76 180 0.0 0.0 0.00 0.00 0.00 91 1009.7
20260506105504 76 173 0.0 0.0 0.00 0.00 0.00 91 1009.7
20260506105004 76 188 0.0 0.0 0.00 0.00 0.00 91 1009.8
20260506104504 76 180 0.0 0.0 0.00 0.00 0.00 91 1009.8
20260506104004 76 182 0.0 0.0 0.00 0.00 0.00 91 1009.9
20260506103504 76 175 0.0 0.0 0.00 0.00 0.00 91 1009.8
20260506103004 76 175 0.0 0.0 0.00 0.00 0.00 91 1009.9
20260506102503 76 181 0.0 0.0 0.00 0.00 0.00 91 1009.9
20260506102004 76 186 0.0 0.0 0.00 0.00 0.00 91 1009.7
20260506101504 76 186 0.0 0.0 0.00 0.00 0.00 91 1009.7
20260506100503 76 175 0.0 0.0 0.00 0.00 0.00 91 1009.6
20260506095505 76 175 0.0 0.0 0.00 0.00 0.00 91 1009.5
20260506095003 76 174 0.0 0.0 0.00 0.00 0.00 91 1009.5
20260506094504 76 173 0.0 0.0 0.00 0.00 0.00 91 1009.5
20260506094004 76 176 0.0 0.0 0.00 0.00 0.00 91 1009.5
20260506093503 76 169 0.0 0.0 0.00 0.00 0.00 90 1009.4
20260506093004 76 174 0.0 0.0 0.00 0.00 0.00 90 1009.4
20260506092504 76 175 0.0 0.0 0.00 0.00 0.00 90 1009.2
20260506092003 76 173 0.0 0.0 0.00 0.00 0.00 90 1009.4
20260506091503 76 173 0.0 0.0 0.00 0.00 0.00 90 1009.4
20260506091004 76 174 0.0 0.0 0.00 0.00 0.00 90 1009.3
20260506090503 76 182 0.0 0.0 0.00 0.00 0.00 90 1009.2
20260506090004 76 170 0.0 0.0 0.00 0.00 0.00 90 1009.3
20260506085504 76 172 0.0 0.0 0.00 0.00 0.00 90 1009.3
20260506085004 76 171 0.0 0.0 0.00 0.00 0.00 90 1009.4
20260506084503 76 176 0.0 0.0 0.00 0.00 0.00 90 1009.5
20260506084004 76 177 0.0 0.0 0.00 0.00 0.00 90 1009.6
20260506083504 76 175 0.0 0.0 0.00 0.00 0.00 90 1009.6
20260506083004 76 171 0.0 0.0 0.00 0.00 0.00 90 1009.8
20260506082503 76 181 0.0 0.0 0.00 0.00 0.00 90 1009.8
20260506081504 76 178 0.0 0.0 0.00 0.00 0.00 90 1010.0
20260506081003 76 180 0.0 0.0 0.00 0.00 0.00 90 1010.0
20260506080503 76 187 0.0 0.0 0.00 0.00 0.00 89 1010.0
20260506073004 76 180 0.0 0.0 0.00 0.00 0.00 89 1010.3
20260506072504 76 180 0.0 0.0 0.00 0.00 0.00 89 1010.4
20260506072003 76 167 0.0 0.0 0.00 0.00 0.00 89 1010.4
20260506071004 76 172 0.0 0.0 0.00 0.00 0.00 88 1010.4
20260506070505 76 178 0.0 0.0 0.00 0.00 0.00 88 1010.5
20260506062503 76 186 0.0 0.0 0.00 0.00 0.00 88 1010.3
20260506062004 77 148 0.0 0.0 0.00 0.00 0.00 88 1010.3
20260506061503 77 201 0.0 0.0 0.00 0.00 0.00 88 1010.3
20260506061004 77 165 0.0 0.0 0.00 0.00 0.00 88 1010.3
20260506060504 77 175 0.0 0.0 0.00 0.00 0.00 88 1010.3
20260506051004 77 180 0.0 0.0 0.00 0.00 0.00 88 1010.3
20260506050504 77 169 0.0 0.0 0.00 0.00 0.00 88 1010.3
20260506045004 77 168 0.0 0.0 0.00 0.00 0.00 88 1010.2
20260506044504 77 186 0.0 0.0 0.00 0.00 0.00 88 1010.2
20260506043004 77 177 0.0 0.0 0.00 0.00 0.00 88 1010.1
20260506042003 77 177 0.0 0.0 0.00 0.00 0.00 87 1010.0
20260506041504 77 188 0.0 0.0 0.00 0.00 0.00 87 1010.1
20260506041004 77 178 0.0 0.9 0.00 0.00 0.00 87 1010.1
20260506040504 77 175 0.0 0.0 0.00 0.00 0.00 87 1010.2
20260506040004 77 178 0.0 0.0 0.00 0.00 0.00 87 1010.3
20260506035503 77 184 0.0 0.0 0.00 0.00 0.00 87 1010.3
20260506035004 77 172 0.0 0.0 0.00 0.00 0.00 87 1010.4
20260506034006 77 175 0.0 0.0 0.00 0.00 0.00 87 1010.2
20260506033504 77 190 0.0 0.0 0.00 0.00 0.00 87 1010.2
20260506033005 77 165 0.0 0.0 0.00 0.00 0.00 87 1010.0
20260506032005 77 174 0.0 0.0 0.00 0.00 0.00 87 1010.1
20260506031504 77 175 0.0 0.0 0.00 0.00 0.00 87 1010.0
20260506031004 77 182 0.0 0.0 0.00 0.00 0.00 87 1009.9
20260506030504 77 179 0.0 0.0 0.00 0.00 0.00 87 1009.9
20260506030003 77 171 0.0 0.0 0.00 0.00 0.00 87 1009.9
20260506025504 77 194 0.0 0.0 0.00 0.00 0.00 87 1009.6
20260506025004 77 165 0.0 0.0 0.00 0.00 0.00 87 1009.5
20260506024004 77 175 0.0 0.0 0.00 0.00 0.00 87 1009.4
20260506023503 78 182 0.0 0.0 0.00 0.00 0.00 87 1009.3
20260506023004 78 184 0.0 0.0 0.00 0.00 0.00 87 1009.1
20260506022503 78 170 0.0 0.0 0.00 0.00 0.00 87 1009.1
20260506022004 78 178 0.0 0.0 0.00 0.00 0.00 87 1009.0
20260506021503 78 176 0.0 0.0 0.00 0.00 0.00 87 1009.0
20260506021004 78 182 0.0 0.0 0.00 0.00 0.00 86 1009.0
20260506020504 78 190 0.0 0.0 0.00 0.00 0.00 86 1009.0
20260506015504 78 181 0.0 0.0 0.00 0.00 0.00 86 1008.7
20260506015004 78 172 0.0 0.0 0.00 0.00 0.00 86 1008.7
20260506014506 78 174 0.0 0.0 0.00 0.00 0.00 86 1008.7
20260506014004 78 175 0.0 0.0 0.00 0.00 0.00 86 1008.7
20260506013504 78 184 0.0 0.0 0.00 0.00 0.00 86 1008.6
20260506013004 78 177 0.0 0.0 0.00 0.00 0.00 86 1008.6
20260506012504 78 209 0.0 0.0 0.00 0.00 0.00 86 1008.6
20260506012004 78 181 0.0 0.0 0.00 0.00 0.00 86 1008.6
20260506011004 78 173 0.0 0.0 0.00 0.00 0.00 86 1008.5
20260506010504 78 173 0.0 0.0 0.00 0.00 0.00 86 1008.4
20260506005503 78 181 0.0 0.0 0.00 0.00 0.00 86 1008.5
20260506005004 79 168 0.0 0.0 0.00 0.00 0.00 85 1008.4
20260506004004 79 182 0.0 0.0 0.00 0.00 0.00 85 1008.3
20260506003004 79 178 0.0 0.0 0.00 0.00 0.00 85 1008.3
20260506002504 79 164 0.0 0.0 0.00 0.00 0.00 85 1008.3
20260506002004 79 182 0.0 0.0 0.00 0.00 0.00 85 1008.0
20260506001504 79 180 0.0 0.0 0.00 0.00 0.00 85 1008.1
20260506000503 79 187 0.0 0.0 0.00 0.00 0.00 85 1008.4
20260506000004 79 171 0.0 0.0 0.00 0.00 0.00 85 1008.4
20260505235504 79 175 0.0 0.0 0.00 0.00 0.00 85 1008.3
20260505235004 79 175 0.0 0.0 0.00 0.00 0.00 85 1008.3
20260505234504 80 175 0.0 0.0 0.00 0.00 0.00 84 1008.1
20260505234004 80 174 0.0 0.0 0.00 0.00 0.00 84 1008.2
20260505233004 80 175 0.0 0.0 0.00 0.00 0.00 84 1008.2
20260505232503 80 171 0.0 0.0 0.00 0.00 0.00 84 1008.0
20260505232004 80 200 0.0 0.0 0.00 0.00 0.00 84 1008.0
20260505231503 80 183 0.0 0.0 0.00 0.00 0.00 84 1008.1
20260505231005 80 145 0.0 0.0 0.00 0.00 0.00 84 1008.2
20260505230504 80 159 0.0 0.0 0.00 0.00 0.00 84 1008.3
20260505230004 80 171 0.0 0.0 0.00 0.00 0.00 84 1008.2
20260505225504 80 179 0.0 0.0 0.00 0.00 0.00 84 1008.2
20260505225005 80 166 0.0 0.0 0.00 0.00 0.00 84 1008.2
20260505224504 80 179 0.0 0.0 0.00 0.00 0.00 84 1008.2
20260505224004 80 179 0.0 0.0 0.00 0.00 0.00 84 1008.2
20260505223504 80 211 0.0 0.0 0.00 0.00 0.00 84 1008.1
20260505222504 80 178 0.0 0.0 0.00 0.00 0.00 84 1008.2
20260505221004 80 168 0.0 0.0 0.00 0.00 0.00 84 1008.3
20260505220504 81 173 0.0 0.0 0.00 0.00 0.00 84 1008.3
20260505215503 81 177 0.0 0.0 0.00 0.00 0.00 84 1008.4
20260505215003 80 156 0.0 0.0 0.00 0.00 0.00 84 1008.4
20260505214504 81 181 0.0 0.0 0.00 0.00 0.00 84 1008.4
20260505213504 81 180 0.0 0.0 0.00 0.00 0.00 83 1008.4
20260505213004 81 175 0.0 0.0 0.00 0.00 0.00 83 1008.5
20260505212504 81 180 0.0 0.0 0.00 0.00 0.00 83 1008.5
20260505212004 81 169 0.0 0.0 0.00 0.00 0.00 83 1008.6
20260505211504 81 164 0.0 0.0 0.00 0.00 0.00 83 1008.6
20260505211004 81 191 0.0 0.0 0.00 0.00 0.00 84 1008.7
20260505210504 81 174 0.0 0.0 0.00 0.00 0.00 84 1008.7
20260505210004 81 180 0.0 0.0 0.00 0.00 0.00 84 1008.8
20260505205504 80 174 0.0 0.0 0.00 0.00 0.00 84 1008.9
20260505205004 80 162 0.0 0.0 0.00 0.00 0.00 84 1009.0
20260505204504 80 184 0.0 0.0 0.00 0.00 0.00 84 1009.0
20260505204003 80 188 0.0 0.0 0.00 0.00 0.00 84 1009.1
20260505203504 80 180 0.0 0.0 0.00 0.00 0.00 83 1009.2
20260505202504 80 156 0.0 0.0 0.00 0.00 0.00 84 1009.2
20260505202004 80 179 0.0 0.0 0.00 0.00 0.00 84 1009.3
20260505201504 80 159 0.0 0.0 0.00 0.00 0.00 85 1009.3
20260505201004 79 173 0.0 0.0 0.00 0.00 0.00 85 1009.5
20260505200504 79 168 0.0 0.0 0.00 0.00 0.00 84 1009.5
20260505195503 79 165 0.0 0.0 0.00 0.00 0.00 84 1009.6
20260505195004 79 182 0.0 0.0 0.00 0.00 0.00 84 1009.7
20260505194504 79 170 0.0 0.0 0.00 0.00 0.00 84 1009.7
20260505193503 79 151 0.0 0.0 0.00 0.00 0.00 84 1009.7
20260505193004 79 190 0.0 0.0 0.00 0.00 0.00 84 1009.7
20260505192504 79 182 0.0 0.0 0.00 0.00 0.00 85 1009.7
20260505192004 79 176 0.0 0.0 0.00 0.00 0.00 85 1009.7
20260505191004 79 219 0.0 0.0 0.00 0.00 0.00 85 1009.8
20260505190505 79 167 0.0 0.0 0.00 0.00 0.00 84 1009.9
20260505185503 79 194 0.0 0.0 0.00 0.00 0.00 84 1009.8
20260505185005 79 162 0.0 0.0 0.00 0.00 0.00 84 1009.9
20260505184504 79 161 0.0 0.0 0.00 0.00 0.00 84 1009.9
20260505184004 79 173 0.0 0.0 0.00 0.00 0.00 84 1010.0
20260505183004 79 159 0.0 0.9 0.00 0.00 0.00 84 1010.1
20260505182504 79 141 0.0 0.0 0.00 0.00 0.00 84 1010.2
20260505182004 79 180 0.0 0.0 0.00 0.00 0.00 84 1010.1
20260505181504 79 178 0.0 0.0 0.00 0.00 0.00 84 1010.1
20260505181004 79 174 0.0 0.0 0.00 0.00 0.00 83 1010.2
20260505180503 79 178 0.0 0.0 0.00 0.00 0.00 83 1010.2
20260505180004 79 186 0.0 0.0 0.00 0.00 0.00 83 1010.2
20260505175504 79 178 0.0 0.0 0.00 0.00 0.00 83 1010.2
20260505174504 79 178 0.0 0.0 0.00 0.00 0.00 84 1010.2
20260505173504 79 173 0.0 0.0 0.00 0.00 0.00 84 1010.2
20260505173005 79 142 0.0 0.9 0.00 0.00 0.00 83 1010.3
20260505172504 80 178 0.0 0.0 0.00 0.00 0.00 83 1010.2
20260505172004 80 172 0.0 0.0 0.00 0.00 0.00 84 1010.2
20260505171504 80 180 0.0 0.0 0.00 0.00 0.00 84 1010.1
20260505171005 79 201 0.0 0.0 0.00 0.00 0.00 84 1010.2
20260505170004 78 190 0.0 0.0 0.00 0.00 0.00 86 1010.4
20260505165504 77 172 0.0 0.0 0.00 0.00 0.00 85 1010.5
20260505165004 77 157 0.0 0.0 0.00 0.00 0.00 86 1010.5
20260505164504 77 171 0.0 0.0 0.00 0.00 0.00 86 1010.5
20260505163504 77 172 0.0 0.0 0.00 0.00 0.00 86 1010.5
20260505162503 77 188 0.0 0.0 0.00 0.00 0.00 86 1010.5
20260505162004 77 176 0.0 0.0 0.00 0.00 0.00 85 1010.5
20260505161504 77 180 0.0 0.0 0.00 0.00 0.00 85 1010.6
20260505161004 77 189 0.0 0.0 0.00 0.00 0.00 85 1010.6
20260505160504 77 168 0.0 0.0 0.00 0.00 0.00 85 1010.6
20260505153004 77 201 0.0 0.0 0.00 0.00 0.00 84 1010.5
20260505152504 77 150 0.0 0.0 0.00 0.00 0.00 84 1010.4
20260505152004 76 147 0.0 0.0 0.00 0.00 0.00 85 1010.4
20260505151504 76 193 0.0 0.0 0.00 0.00 0.00 85 1010.1
20260505150504 76 177 0.0 0.0 0.00 0.00 0.00 85 1010.3
20260505140504 76 198 0.0 0.0 0.00 0.00 0.00 85 1010.4
20260505124504 73 173 0.0 0.0 0.00 0.00 0.00 87 1010.1
20260505124005 73 166 0.0 0.0 0.00 0.00 0.00 87 1009.9
20260505123504 73 175 0.0 0.0 0.00 0.00 0.00 87 1009.9
20260505123005 73 184 0.0 0.0 0.00 0.00 0.00 87 1009.9
20260505122505 73 179 0.0 0.0 0.00 0.00 0.00 88 1009.8
20260505122004 72 162 0.0 0.0 0.00 0.00 0.00 88 1009.9
20260505121504 72 194 0.0 0.0 0.00 0.00 0.00 88 1009.8
20260505121004 72 156 0.0 0.0 0.00 0.00 0.00 88 1009.8
20260505120504 72 165 0.0 0.0 0.00 0.00 0.00 88 1009.8
20260505115004 72 182 0.0 0.0 0.00 0.00 0.00 88 1009.7
20260505114504 71 178 0.0 0.0 0.00 0.00 0.00 88 1009.6
20260505114004 71 167 0.0 0.0 0.00 0.00 0.00 88 1009.7
20260505113504 71 174 0.0 0.0 0.00 0.00 0.00 88 1009.8
20260505113004 71 188 0.0 0.0 0.00 0.00 0.00 88 1009.7
20260505112504 71 183 0.0 0.0 0.00 0.00 0.00 88 1009.5
20260505112004 71 179 0.0 0.0 0.00 0.00 0.00 88 1009.6
20260505111004 71 155 0.0 0.0 0.00 0.00 0.00 88 1009.5